Le nostre stazioni meteo in Italia

Pubblicità
Il mio iltempo24.it
Cluanie Inn No 3, Gran Bretagna (99117): Temperatura & dewpoint: 14.08.2017 05:00:00 - 20.08.2017 05:00:00 (BST)Cluanie Inn No 3, Gran Bretagna (99117): visibility: 14.08.2017 05:00:00 - 20.08.2017 05:00:00 (BST)Cluanie Inn No 3, Gran Bretagna (99117): precipitazioni: 14.08.2017 05:00:00 - 20.08.2017 05:00:00 (BST)
Data & Tempo tt [°C] td [°C] vv [km] rr [mm]
20.08.2017 05:00:00 - - - -
20.08.2017 04:00:00 10,2 8,1 - 0,0
20.08.2017 03:00:00 10,4 8,5 - 0,4
20.08.2017 02:00:00 10,7 8,8 - 0,4
20.08.2017 01:00:00 10,9 9,3 - 0,2
20.08.2017 00:00:00 10,8 9,7 - 4,0
19.08.2017 23:00:00 10,8 9,6 - 3,0
19.08.2017 22:00:00 11,9 8,6 - 0,0
19.08.2017 21:00:00 11,6 9,2 - 0,0
19.08.2017 20:00:00 12,1 9,2 - 0,0
19.08.2017 19:00:00 12,0 9,7 - 0,2
19.08.2017 18:00:00 12,2 10,1 - 0,6
19.08.2017 17:00:00 12,5 10,4 - 1,6
19.08.2017 16:00:00 12,2 10,5 - 2,6
19.08.2017 15:00:00 12,7 9,7 - 0,0
19.08.2017 14:00:00 12,4 10,9 - 2,6
19.08.2017 13:00:00 13,5 10,9 - 0,0
19.08.2017 12:00:00 12,1 10,1 - 7,8
19.08.2017 11:00:00 11,1 9,8 - 6,4
19.08.2017 10:00:00 11,0 9,5 - 1,4
19.08.2017 09:00:00 11,7 8,7 - 2,2
19.08.2017 08:00:00 10,8 9,0 - 4,2
19.08.2017 07:00:00 10,3 8,7 - 1,0
19.08.2017 06:00:00 10,5 8,1 - 0,8
19.08.2017 05:00:00 10,3 7,7 - 0,8
19.08.2017 04:00:00 10,3 7,3 - 0,0
19.08.2017 03:00:00 10,8 7,1 - 0,2
19.08.2017 02:00:00 10,2 7,8 - 1,2
19.08.2017 01:00:00 11,1 7,4 - 1,4
19.08.2017 00:00:00 11,1 8,6 - 2,2
18.08.2017 23:00:00 11,1 8,9 - 2,4
18.08.2017 22:00:00 10,7 9,8 - 2,6
18.08.2017 21:00:00 11,5 9,9 - 1,4
18.08.2017 20:00:00 11,3 10,1 - 1,0
18.08.2017 19:00:00 11,2 9,0 - 0,0
18.08.2017 18:00:00 12,1 8,3 - 0,0
18.08.2017 17:00:00 11,8 8,4 - 1,0
18.08.2017 16:00:00 11,5 8,6 - 0,8
18.08.2017 15:00:00 11,2 8,8 - 0,2
18.08.2017 14:00:00 13,6 7,9 - 0,0
18.08.2017 13:00:00 12,5 7,5 - 0,0
18.08.2017 12:00:00 11,2 7,1 - 0,0
18.08.2017 11:00:00 10,6 6,8 - 0,0
18.08.2017 10:00:00 9,7 6,9 - 0,8
18.08.2017 09:00:00 9,2 8,2 - 0,0
18.08.2017 08:00:00 9,3 8,0 - 0,6
18.08.2017 07:00:00 10,2 9,0 - 3,6
18.08.2017 06:00:00 10,6 10,2 - 2,2
18.08.2017 05:00:00 10,4 9,8 - 1,6
18.08.2017 04:00:00 10,4 9,8 - 0,2
18.08.2017 03:00:00 10,4 9,6 - 1,6
18.08.2017 02:00:00 10,5 9,4 - 1,6
18.08.2017 01:00:00 10,7 9,2 - 2,8
18.08.2017 00:00:00 11,8 8,3 - 0,0
17.08.2017 23:00:00 11,8 9,0 - 0,0
17.08.2017 22:00:00 11,5 9,2 - 0,0
17.08.2017 21:00:00 12,4 8,8 - 0,0
17.08.2017 20:00:00 13,1 7,7 - 0,0
17.08.2017 19:00:00 14,2 7,1 - 0,0
17.08.2017 18:00:00 14,5 7,4 - 0,0
17.08.2017 17:00:00 15,6 8,8 - 0,0
17.08.2017 16:00:00 15,2 9,4 - 0,0
17.08.2017 15:00:00 14,6 8,8 - 0,2
17.08.2017 14:00:00 13,0 9,3 - 0,8
17.08.2017 13:00:00 13,7 11,1 - 3,2
17.08.2017 12:00:00 13,1 10,2 - 1,4
17.08.2017 11:00:00 12,8 10,9 - 1,4
17.08.2017 10:00:00 12,1 9,8 10 0,2
17.08.2017 09:00:00 13,9 8,4 - 0,0
17.08.2017 08:00:00 12,9 8,0 - 0,0
17.08.2017 07:00:00 12,5 8,0 - 0,0
17.08.2017 06:00:00 12,6 7,2 - 0,0
17.08.2017 05:00:00 12,6 8,4 - 0,0
17.08.2017 04:00:00 12,6 8,0 - 0,0
17.08.2017 03:00:00 12,7 8,0 - 0,0
17.08.2017 02:00:00 12,8 7,8 - 0,0
17.08.2017 01:00:00 12,8 8,6 - 0,2
17.08.2017 00:00:00 13,3 9,8 - 0,4
16.08.2017 23:00:00 13,8 11,4 - 3,4
16.08.2017 22:00:00 15,3 12,5 - 2,4
16.08.2017 21:00:00 15,2 12,3 - 0,2
16.08.2017 20:00:00 13,7 12,6 - 0,6
16.08.2017 19:00:00 13,3 12,2 - 1,8
16.08.2017 18:00:00 13,2 11,8 - 1,2
16.08.2017 17:00:00 13,4 11,4 - 0,4
16.08.2017 16:00:00 12,3 11,4 - 0,8
16.08.2017 15:00:00 12,6 10,7 - 0,2
16.08.2017 14:00:00 12,7 9,8 - 0,2
16.08.2017 13:00:00 12,2 9,5 - 0,2
16.08.2017 12:00:00 13,5 7,7 - 0,0
16.08.2017 11:00:00 13,2 8,3 - 0,2
16.08.2017 10:00:00 13,0 9,3 - 0,0
16.08.2017 09:00:00 11,7 8,1 - 0,0
16.08.2017 08:00:00 11,6 8,0 - 0,0
16.08.2017 07:00:00 11,7 7,3 - 0,0
16.08.2017 06:00:00 10,3 7,6 - 0,0
16.08.2017 05:00:00 10,5 7,6 - 0,0
16.08.2017 04:00:00 9,9 7,5 - 0,2
16.08.2017 03:00:00 10,1 8,2 - 0,0
16.08.2017 02:00:00 9,7 8,4 - 0,2
16.08.2017 01:00:00 10,3 8,5 - 0,4
16.08.2017 00:00:00 11,2 7,8 - 0,8
15.08.2017 23:00:00 11,0 8,4 - 0,0
15.08.2017 22:00:00 11,2 8,2 - 0,4
15.08.2017 21:00:00 11,6 7,8 - 0,0
15.08.2017 20:00:00 11,3 8,6 - 0,2
15.08.2017 19:00:00 11,8 8,1 - 0,0
15.08.2017 18:00:00 12,3 7,8 - 0,0
15.08.2017 17:00:00 12,1 9,2 - 0,2
15.08.2017 16:00:00 14,6 10,3 - 0,4
15.08.2017 15:00:00 12,4 9,9 - 0,8
15.08.2017 14:00:00 13,6 8,0 - 0,2
15.08.2017 13:00:00 13,6 9,0 - 0,0
15.08.2017 12:00:00 15,0 7,8 - 0,0
15.08.2017 11:00:00 14,0 6,7 - 0,0
15.08.2017 10:00:00 12,8 6,8 10 0,0
15.08.2017 09:00:00 13,1 8,1 - 0,0
15.08.2017 08:00:00 12,1 7,9 - 0,0
15.08.2017 07:00:00 10,2 8,7 - 0,0
15.08.2017 06:00:00 10,4 8,1 - 0,0
15.08.2017 05:00:00 10,9 7,7 - 0,0
15.08.2017 04:00:00 11,0 8,2 - 0,0
15.08.2017 03:00:00 11,0 9,7 - 0,0
15.08.2017 02:00:00 10,2 9,2 - 0,0
15.08.2017 01:00:00 10,7 9,3 - 0,0
15.08.2017 00:00:00 11,3 9,7 - 0,0
14.08.2017 23:00:00 12,0 10,0 - 0,0
14.08.2017 22:00:00 12,4 10,4 10 0,0
14.08.2017 21:00:00 13,8 10,8 - 0,2
14.08.2017 20:00:00 14,3 11,9 - 0,2
14.08.2017 19:00:00 14,9 12,0 - 1,2
14.08.2017 18:00:00 14,4 13,2 - 0,4
14.08.2017 17:00:00 14,1 12,9 - 0,4
14.08.2017 16:00:00 13,1 12,5 - 0,0
14.08.2017 15:00:00 12,8 12,3 - 0,6
14.08.2017 14:00:00 11,7 11,0 - 0,6
14.08.2017 13:00:00 11,4 10,3 - 0,6
14.08.2017 12:00:00 10,9 10,0 - 2,8
14.08.2017 11:00:00 10,3 9,3 - 1,6
14.08.2017 10:00:00 9,9 8,7 - 1,0
14.08.2017 09:00:00 9,5 8,2 - 0,8
14.08.2017 08:00:00 9,3 8,1 - 1,6
14.08.2017 07:00:00 9,3 7,6 - 1,0
14.08.2017 06:00:00 9,2 7,2 - 0,4
14.08.2017 05:00:00 10,0 6,3 - 0,0

tt = Temperatura
td = dewpoint
vv = visibility
rr = precipitazioni

Stazioni seguenti

WeatherPro
AMSI
MeteoEarth